ROMMA est une association bénévole à but non lucratif. Votre soutien est indispensable : ADHERER à ROMMA ou FAIRE un DON

Miribel-les-Echelles - (38, Isère)

Massif de la Chartreuse (760 m)   Longitude: 05° 41' 54'' E   Latitude: 45° 26' 40'' N Station partenaire n°22
 

Détail journalier du     <<     >>

Température Precipitation Humidité Pression Vent Dir Rafale Dir. rafale Ensol.
Heure (°C) (mm) (%) (hPa) (km/h) (km/h) (min)
01:00 8.2094101710O40OSO0
02:00 7.909410175N24N0
03:00 7.609410173NO18N0
04:00 7.309310163N16NNO0
05:00 6.909510162N10NNO0
06:00 7.009510162NNO10NNO0
07:00 6.609510172NO8NNO0
08:00 7.409610173NO13NO0
09:00 8.309610183N13NNO30
10:00 7.709510185NNE16N30
11:00 8.709210197N18NNE30
12:00 9.909210208NNE19N60
13:00 10.60.28610196NNE24NNE60
14:00 11.408510199NNE23NE60
15:00 10.908710195NO18NO30
16:00 10.408910197NO26NNO0
17:00 10.508910196NO19NO0
18:00 10.308810195NNO16N0
19:00 9.509010205NO16NNO0
20:00 9.209110204ONO19NNO0
21:00 8.409210214NO16ONO0
22:00 8.009810214O13O0
23:00 6.609410212O6O0
minuit 7.809510212O10O0

Graphique du 07-10-2019

 

Serveur OMMA